This is the latest recevied weather packets stored in our database for station/object AA4OM-2. If no packets are shown the sender has not sent any weather packets the latest 10 day(s).
| Time | Temp. | Humidity | Pressure | Rain* | Wind** | Luminosity | Snow |
|---|---|---|---|---|---|---|---|
| 1777248973 | 22.78° C | 65% | 1012.4 hPa | 0 mm | - | 12 W/m² | - |
| 1777248669 | 22.78° C | 64% | 1012.7 hPa | 0 mm | - | 15 W/m² | - |
| 1777248365 | 23.33° C | 63% | 1012.7 hPa | 0 mm | - | 19 W/m² | - |
| 1777248062 | 23.89° C | 60% | 1012.9 hPa | 0 mm | - | 25 W/m² | - |
| 1777247761 | 25° C | 58% | 1012.6 hPa | 0 mm | - | 29 W/m² | - |
| 1777247458 | 25.56° C | 56% | 1012.5 hPa | 0 mm | - | 33 W/m² | - |
| 1777247156 | 27.22° C | 54% | 1012.6 hPa | 0 mm | - | 42 W/m² | - |
| 1777246853 | 27.22° C | 48% | 1012.7 hPa | 0 mm | - | 53 W/m² | - |
| 1777246548 | 27.22° C | 53% | 1012.4 hPa | 0 mm | - | 61 W/m² | - |
| 1777246246 | 27.22° C | 53% | 1012.3 hPa | 0 mm | - | 70 W/m² | - |
| 1777245943 | 27.22° C | 49% | 1012.4 hPa | 0 mm | - | 80 W/m² | - |
| 1777245642 | 27.22° C | 49% | 1012.4 hPa | 0 mm | - | 91 W/m² | - |
| 1777245338 | 27.78° C | 44% | 1012.5 hPa | 0 mm | - | 102 W/m² | - |
| 1777245033 | 27.78° C | 41% | 1012.4 hPa | 0 mm | - | 115 W/m² | - |
| 1777244729 | 28.33° C | 42% | 1012.4 hPa | 0 mm | - | 130 W/m² | - |
| 1777244426 | 28.89° C | 43% | 1012 hPa | 0 mm | - | 146 W/m² | - |
| 1777244122 | 28.89° C | 38% | 1012.6 hPa | 0 mm | - | 165 W/m² | - |
| 1777243822 | 28.89° C | 39% | 1012.3 hPa | 0 mm | - | 187 W/m² | - |
| 1777243517 | 28.33° C | 48% | 1012.4 hPa | 0 mm | - | 231 W/m² | - |
| 1777243213 | 28.89° C | 40% | 1012.4 hPa | 0 mm | - | 266 W/m² | - |
| 1777242909 | 28.33° C | 42% | 1012.5 hPa | 0 mm | - | 273 W/m² | - |
| 1777242607 | 28.33° C | 39% | 1012.3 hPa | 0 mm | - | 236 W/m² | - |
| 1777242302 | 28.89° C | 41% | 1012.4 hPa | 0 mm | - | 255 W/m² | - |
| 1777242000 | 28.89° C | 39% | 1012.4 hPa | 0 mm | - | 227 W/m² | - |
| 1777241696 | 28.89° C | 37% | 1012.2 hPa | 0 mm | - | 271 W/m² | - |
* Rain latest hour (hover to see other rain measurements)
** Current wind speed in m/s (hover to see current wind gust speed)